Погода в Минусинске

Погода в Минусинске : погода сейчас, прогноз погоды и архив. Всё, что Вы хотите узнать о погоде в Минусинске!

Поиск расширенной информации на нашем сайте:

Другие новости

Новости СМИ2

Главная страница сайта

Новости сайта

03.07.2017

Напоминаем, что на нашем специализированном сайте Метеоцентр.Азия вы можете получить высокодетализированные автоматические прогнозы погоды по пунктам России, СНГ и мира в авиационном формате (включающие направление и скорость ветра, видимость, явления погоды, количество и форму облачности, нижнюю и верхнюю границу облачности).

Рекомендуем: http://minprom.ua/ условия ес для украины: вступление украины в сроки и условия.

Погода в Минусинске - сегодня

Время (UTC), дата Ветер
(°,м/с) 
Видим.   Явления Облачность Т
(°С)
Тd
(°С)
f(%) Тe
(°С)
Pmin
(гПа)
dP
(гПа)
Po
(мм)
O2
(г/м3)
Тmin Tmax R s Состояние
почвы
06 16.04.18 240 (ЮЗ) 20000 м    8/0 верхняя 
[Ci fib]
+11.9 -4.1 32 +11  1008.5  -2.7  734  284           
09 16.04.18 210 (ЮЗ) 20000 м    10/0 верхняя 
[Cs]
+13.8 -1.9 34 +14  1004.9  -3.3  731  281           
12 16.04.18 160 (Ю) 20000 м    10/6 1000 м средняя 
[Sc|Ac As]
+12.2 -0.6 41 +13  1003.4  -1.6  730  282    +14.4       
15 16.04.18 190 (Ю) 4{12}  н/о    9/3 2000 м средняя, верхняя 
[Ac trans|Ci sp]
+10.6 +0 48 +10  1004.8  1.2  731  283           
18 16.04.18 220 (ЮЗ) н/о    6/0 верхняя 
[Ci fib]
+6 +2.1 76 +4  1006.5  1.2  732  288           
00 17.04.18 220 (ЮЗ) 5{10}  20000 м    8/3 1000 м средняя, верхняя 
[Sc|Ac trans|Ci]
+5.9 -1 61 +4  1009.8  1.2  734  290  +3.1         
12 17.04.18 250 (З) 6{17}  20000 м    9/8 600 м кучево-дожд., верхняя 
[Cb cap|Ci fib]
+7.8 -1.4 52 +6  1010  1.1  734  288    +13.4       
15 17.04.18 270 (З) 5{11}  н/о    10/10 600 м 
[Sc]
+5.6 +0.5 70 +4  1011.8  1.6  736  290           
18 17.04.18 030 (СВ) н/о    8/3 600 м средняя 
[Sc|Ac trans]
+2.6 -1.9 72 +2  1015.2  2.9  738  295           
21 17.04.18 320 (СЗ) н/о    10/4 600 м средняя, верхняя 
[Sc|Ac trans|Ci fib]
+0.4 -4.3 71 +1  1016.7  1.2  739  298           
00 18.04.18 100 (В) 20000 м    10/5 1000 м средняя, верхняя 
[Cu Sc|Ac trans|Ci fib]
-0.1 -3.8 76 -1  1017.3  0.5  739  298  -0.6         
06 18.04.18 350 (С) 10 км  в посл. час ливневой снег  10/8 600 м кучево-дожд., средняя 
[Cb cap|Ac As]
+1.1 -3.4 72 1019.4  0.8  741  298           
09 18.04.18 010 (С) 20000 м    10/8 1000 м верхняя 
[Cu Sc|Ci fib]
+3.7 -6.4 48 +2  1018.6  -0.4  740  295           
12 18.04.18 030 (СВ) 20000 м    10/8 600 м кучево-дожд., верхняя 
[Cb cap|Ci fib]
+2.6 -7.7 47 +1  1018.4  -0.4  740  296    +4.4  0.3     
15 18.04.18 360 (С) н/о    10/10 600 м кучево-дожд. 
[Cb cap]
+1.4 -6.9 54 1019  0.5  741  298           
18 18.04.18 020 (С) н/о    10/10 600 м кучево-дожд. 
[Cb cap]
+0.8 -7.2 55 1020.3  1.1  741  299           
21 18.04.18 тихо ()   н/о    9/6 1000 м средняя, верхняя 
[Sc|Ac trans|Ci fib]
-3.4 -6.6 78 -3  1021.4  0.6  742  303           
00 19.04.18 тихо ()   20000 м    10/6 1000 м верхняя 
[Sc|Ci fib]
-2 -4.1 85 -2  1022.3  1.1  743  302  -3.6         
03 19.04.18 190 (Ю) 20000 м    4/3 1000 м верхняя 
[Cu med, cong|Ci fib]
+3 -7.5 46 +4  1022.5  0.7  743  297           
06 19.04.18 270 (З) 20000 м    9/8 600 м кучево-дожд., верхняя 
[Cb cap|Ci fib]
+3.8 -8.5 40 +3  1020.7  -1.6  742  296           
09 19.04.18 300 (СЗ) 20000 м    6/6 600 м кучево-дожд. 
[Cb cap]
+6.9 -8.7 32 +7  1018.6  -1.8  741  292           
12 19.04.18 110 (В) 20000 м    9/4 1000 м верхняя 
[Sc|Cs]
+6.4 -8.7 33 +5  1017.2  -1.3  740  292    +7.9       
15 19.04.18 050 (СВ) н/о    10/6 1000 м средняя, верхняя 
[Sc|Ac trans|Ci fib]
+3.7 -5.9 49 +2  1017.5  740  295           
18 19.04.18 050 (СВ) н/о    10/10 1000 м 
[Sc]
+3.4 -6.8 47 +3  1016.2  -1.3  739  295           
21 19.04.18 010 (С) н/о  ливневой снег  10/10 600 м кучево-дожд. 
[Cb cap]
+0.9 -1.1 86 -1  1017.3  0.8  739  297           
Время (UTC), дата Ветер
(°,м/с) 
Видим.   Явления Облачность Т
(°С)
Тd
(°С)
f(%) Тe
(°С)
Pmin
(гПа)
dP
(гПа)
Po
(мм)
O2
(г/м3)
Тmin Tmax R s Состояние
почвы

Для получения пояснительной информации подведите курсор к названию столбца.

ПОГОДА в Минусинске - архив

Всё, что Вы хотите узнать о погоде в Минусинске - удобно и подробно!

Выберите нужную дату (начиная с 1 января 2015* года) и нажмите кнопку "Найти".
Будут отображены архивные сводки погоды по пункту Минусинск, начиная с указанной даты.


Отображать данные в формате CSV (для использования в таблицах Excel)


Внимание! Наш архив погоды предназначен исключительно для личного некоммерческого использования в познавательных целях. Если Вам необходимы официальные справки о состоянии погоды (для производственных, юридических, коммерческих и т.п. целей), обращайтесь в органы Росгидромета.

*Примечание: данная дата относится к архиву по метеостанциям СССР (Россия, СНГ, Балтия).
Архив по метеостанциям Зарубежной Европы и Азии (кроме Китая) хранится 10 дней, по другим регионам земного шара (Китай, Африка, Америка, Австралия, Океания) - 1 день.

Минусинск - район местоположения метеостанции


Название, широта, долгота, высота метеостанции:
Минусинск 53.7°ш. 91.7°д. 254 м над ур. моря [Российская Федерация]

Дополнительная информация

В oтличие oт бoльшинства пoгoдных сайтoв мы публикуем пoдрoбную метеoинфoрмацию в детальнoм прoфессиoнальнoм фoрмате.

Характеристики температуры и влажнoсти вoздуха измеряются на высoте 2 м в тени вдали oт зданий и деревьев.
Скoрoсть ветра измеряется на высoте 10 м (на урoвне рoста челoвека скoрoсть ветра ниже в 1.5-2 раза). Если метеoстанция нахoдится в гoрoде или в лесу, тo скoрoсть ветра занижена на 2-4 м/с пo сравнению с oткрытым местoм. Скoрoсть ветра над акватoриями крупных рек и oзёр, а также на вершинах хoлмoв на 2-5 м/с выше, чем в oбычных услoвиях.
Атмoсфернoе давление в разных тoчках местнoсти мoжет значительнo oтличаться oт давления на метеoстанции, в зависимoсти oт услoвий рельефа (при пoдъёме на 10 м давление пoнижается примернo на 1 мм рт.ст.).